EXPRESS-AM5

Last updated on Wed Sep 17 2025 00:02:48 GMT+0000 (Coordinated Universal Time)

1 39487U 13077A 25259.41155932 .00000000 00000+0 00000+0 0 9990 2 39487 0.0252 155.9078 0000189 114.6944 13.1947 1.00269586 43610
UTC large
Height (km)
Speed (km/s)
/
Latitude / Longitude
Inclination (degrees)
Orbital Period (minutes)
Azimuth
Elevation
Range (km)
Doppler Factor

Next 0 passes for location: London (51.5072 / 0.1276)

Sorry there are no passes over London.